SCP
0 0 0 0 0 0 -0 0 0 0 0 0 0 0 0 0 0 0 0 0 0 0 0 0 0 0 0 0 0 0 0 0 0 0 0 0 0 0 0 0 0 0 0 0 0 0 0 0 0 0 0 0 0 0
0 0 0 0 -0 0 -0 0 0 0 0 0 0 0 0 0 0 0 0 0 0 0 0 0 0 0 0 0 0 0 0 0 0 0 0 0 0 0 0 0 0 0 0 0 0 0 0 0 0 0 0 0 0 0
0 0 0 0 -0 -0 0 0 0 0 0 0 0 0 0 0 0 0 0 0 0 0 0 0 0 0 0 0 0 0 0 0 0 0 0 0 0 0 0 0 0 0 0 0 0 0 0 0 0 0 0 0 0 0
0 0 0 0 0 0 0 0 0 0 0 0 0 0 0 0 0 0 0 0 0 0 0 0 0 0 0 0 0 0 0 0 0 0 0 0 0 0 0 0 0 0 0 0 0 0 0 0 0 0 0 0 0 0
0 0 0 0 0 -0 -0 0 0 0 0 0 0 0 0 0 0 0 0 0 0 0 0 0 0 0 0 0 0 0 0 0 0 0 0 0 0 0 0 0 0 0 0 0 0 0 0 0 0 0 0 0 0 0
0 0 0 0 0 0 -0 0 0 0 0 0 0 0 0 0 0 0 0 0 0 0 0 0 0 0 0 0 0 0 0 0 0 0 0 0 0 0 0 0 0 0 0 0 0 0 0 0 0 0 0 0 0 0
-0 0 -0 0 -0 -0 -0 -0 0 0 0 0 0 0 0 0 0 0 0 0 0 0 0 0 0 0 0 0 0 0 0 0 0 0 0 0 0 0 0 0 0 0 0 0 0 0 0 0 0 0 0 0 0 0
0 -0 -0 -0 0 -0 -0 -0 0 0 0 0 0 0 0 0 0 0 0 0 0 0 0 0 0 0 0 0 0 0 0 0 0 0 0 0 0 0 0 0 0 0 0 0 0 0 0 0 0 0 0 0 0 0
0 0 -0 -0 0 0 -0 0 0 0 0 0 0 0 0 0 0 0 0 0 0 0 0 0 0 0 0 0 0 0 0 0 0 0 0 0 0 0 0 0 0 0 0 0 0 0 0 0 0 0 0 0 0 0
-0 0 -0 0 0 0 -0 0 0 0 0 0 0 0 0 0 0 0 0 0 0 0 0 0 -0 -0 0 0 0 0 0 0 0 0 0 0 0 0 0 0 0 0 0 0 0 0 0 0 0 0 0 0 0 0
0 -0 0 0 0 -0 0 0 0 0 0 0 0 0 0 0 0 0 0 0 0 0 0 0 0 -0 -0 0 0 0 0 0 0 0 0 0 0 0 0 0 0 0 0 0 0 0 0 0 0 0 0 0 0 0
0 0 -0 -0 -0 -0 0 0 0 0 0 0 0 0 0 0 0 0 0 0 0 0 0 0 -0 0 0 0 0 0 0 0 0 0 0 -0 -0 0 0 0 0 0 0 0 0 0 0 0 0 0 0 0 0 -0
0 0 -0 -0 -0 0 -0 -0 0 0 0 0 0 0 0 0 0 0 0 0 0 0 0 0 0 0 0 0 0 0 0 0 0 0 0 -0 -0 0 0 0 0 0 0 0 0 0 0 0 0 0 0 0 0 0
0 0 0 -0 0 -0 0 0 0 0 0 0 0 0 0 0 0 0 0 0 0 0 0 0 0 0 0 0 0 0 0 0 0 -0 -0 -0 -0 -0 -0 0 0 0 0 0 0 0 0 0 0 0 0 0 0 -0
0 0 -0 0 0 -0 0 0 0 0 0 0 0 0 0 0 0 0 0 0 0 0 0 0 0 0 0 0 0 0 0 -0 -0 -0 -0 -0 -0 0 0 0 0 0 0 0 0 0 0 0 0 0 0 0 0 0
-0 0 0 0 0 -0 0 0 0 0 0 0 0 0 0 0 0 0 0 0 0 0 0 0 0 0 0 0 0 -0 0 -0 0 0 0 0 0 0 -0 -0 0 0 0 0 0 0 0 0 0 0 0 0 0 0
0 0 -0 -0 -0 -0 0 0 0 0 0 0 0 0 0 0 0 0 0 0 0 0 0 0 0 0 0 0 0 0 0 0 0 0 0 0 0 0 -0 0 0 0 0 0 0 0 0 0 0 0 0 0 0 0
0 0 -0 -0 0 0 0 0 0 0 0 0 0 0 0 0 0 0 0 0 0 0 0 0 0 0 0 0 0 0 0 0 0 0 0 0 0 0 0 0 0 0 0 0 0 0 0 0 0 0 0 0 0 0
0 0 -0 0 0 0 0 0 0 0 0 0 0 0 0 0 0 0 0 0 0 0 0 0 0 0 0 0 0 0 0 0 0 0 0 0 0 0 0 0 0 0 0 0 0 0 0 0 0 0 0 0 0 0
-0 0 0 0 0 0 0 0 0 0 0 0 0 0 0 0 0 0 0 0 0 0 0 0 0 0 0 0 0 0 0 0 0 0 0 0 0 0 0 0 0 0 0 0 0 0 0 0 0 0 0 0 0 0
0 -0 0 0 0 0 0 0 0 0 0 0 0 0 0 0 0 0 0 0 0 0 0 0 0 0 0 0 0 0 0 0 0 0 0 0 0 0 0 0 0 0 0 0 0 0 0 0 0 0 0 0 0 0
-0 0 0 0 0 0 0 0 0 0 0 0 0 0 0 0 0 0 0 0 0 0 0 0 0 0 0 0 0 0 0 0 0 0 0 0 0 0 0 0 0 0 0 0 0 0 0 0 0 0 0 0 0 0
0 0 0 0 0 0 0 0 0 0 0 0 0 0 0 0 0 0 0 0 0 0 0 0 0 0 0 0 0 -0 0 0 0 0 0 0 0 0 0 0 0 0 0 0 0 0 0 0 0 0 0 0 0 0
0 0 0 0 0 0 0 0 0 0 0 0 0 0 0 0 0 0 0 0 0 0 0 0 0 0 0 0 -0 -0 0 0 0 0 0 0 0 0 0 0 0 0 0 0 0 0 0 0 0 0 0 0 0 0
0 0 0 0 0 0 0 0 0 0 0 0 0 0 0 0 0 0 0 0 0 0 0 0 0 0 0 0 0 0 0 0 0 0 0 0 0 0 0 0 0 0 0 0 0 0 0 0 0 0 0 0 0 0
0 0 0 0 0 0 0 0 0 0 0 0 0 0 0 0 0 0 0 0 0 0 0 0 0 0 0 0 0 0 0 0 0 0 0 0 0 0 0 0 0 0 0 0 0 0 0 0 0 0 0 0 0 0
0 0 0 0 0 0 0 0 0 0 0 0 0 0 0 0 0 0 0 0 0 0 0 0 0 0 0 0 0 0 0 0 0 0 0 0 0 0 0 0 0 0 0 0 0 0 0 0 0 0 0 0 0 0
0 0 0 0 0 0 0 0 0 0 0 0 0 0 0 0 0 0 0 0 0 0 0 0 0 0 0 0 0 0 0 0 0 0 0 0 0 0 0 0 0 0 0 0 0 0 0 0 0 0 0 -0 -0 -0
0 0 0 0 0 0 0 0 0 0 0 0 0 0 0 0 0 0 0 0 0 0 0 0 0 0 0 0 0 0 0 0 0 0 0 0 0 0 0 0 0 0 0 -0 -0 -0 -0 0 0 -0 -0 -0 0 0
0 0 0 0 0 0 0 0 0 0 0 0 0 0 0 0 0 0 0 0 0 0 0 0 0 0 0 0 0 0 0 0 0 0 0 0 0 0 0 0 0 0 0 0 0 0 -0 0 0 0 0 0 0 0
0 0 0 0 0 0 0 0 0 0 0 0 0 0 0 0 0 0 0 0 0 0 0 0 0 0 0 0 0 0 0 0 0 0 0 0 0 0 0 0 0 0 0 0 0 0 -0 -0 -0 -0 0 0 0 0
0 0 0 0 0 0 0 0 0 0 0 0 0 0 0 0 0 0 0 0 0 0 0 0 0 0 0 0 0 -0 -0 -0 -0 -0 0 0 0 0 0 -0 0 -0 -0 -0 -0 -0 -0 -0 -0 -0 -0 0 0 0
0 0 0 0 0 0 0 0 0 0 0 0 0 0 0 0 0 0 0 0 0 0 0 0 0 0 0 0 -0 -0 -0 -0 -0 -0 -0 -0 -0 -0 -0 -0 -0 -0 -0 -0 -0 -0 -0 -0 -0 -0 0 0 0 0
Wind_Speed_500mb
89 79 70 63 57 51 47 39 34 33 35 30 28 28 23 30 31 43 64 48 31 12 5 7 4 2 6 12 7 16 10 4 4 5 6 6 6 9 6 7 10 11 11 7 6 5 16 18 12 12 7 9 6 4
102 92 75 68 56 49 44 40 34 32 35 28 27 27 26 31 35 46 53 44 32 11 6 12 9 5 4 15 14 34 1 9 16 5 0 5 5 4 8 6 2 4 11 8 14 10 6 41 3 16 9 8 8 4
110 83 66 64 46 45 42 36 32 33 33 29 28 28 25 28 25 76 61 53 36 15 6 5 4 6 8 12 22 13 11 13 11 6 7 4 5 6 6 8 4 7 10 4 4 5 8 32 13 10 7 6 7 3
95 72 55 38 40 39 40 32 31 29 32 27 23 25 28 27 21 54 66 58 34 18 7 6 11 8 6 8 16 16 12 18 19 11 6 4 5 5 5 4 6 8 13 9 7 3 5 21 22 18 13 11 8 4
79 76 62 50 47 42 35 30 30 28 27 23 23 18 19 16 30 56 63 51 33 11 9 8 11 8 7 7 9 14 23 24 14 6 4 4 5 5 3 4 5 15 12 9 10 17 12 11 41 27 19 13 9 8
76 77 68 58 50 43 35 29 30 26 25 23 21 20 16 19 25 42 14 44 40 19 9 5 5 2 6 12 7 6 13 13 9 11 7 7 7 9 6 5 14 31 24 33 11 18 17 22 38 24 19 15 13 11
80 68 67 59 59 39 32 28 29 25 23 22 21 15 27 26 35 32 17 22 54 25 5 5 4 5 9 10 6 7 10 4 7 8 6 10 6 11 3 6 13 21 37 20 21 28 22 35 20 25 19 20 18 14
78 58 55 42 32 11 18 23 26 26 22 23 21 16 18 51 51 39 18 41 58 19 6 6 3 3 4 5 5 8 9 7 3 4 3 5 6 4 6 19 11 15 27 28 32 23 12 30 31 30 26 23 18 15
45 39 39 24 14 6 11 18 25 22 24 28 23 25 27 31 17 32 49 60 33 5 12 6 7 4 4 5 5 4 3 3 2 3 1 2 2 10 16 19 28 35 31 31 32 21 23 34 35 31 27 24 19 16
42 37 31 17 8 4 10 19 19 25 28 23 25 15 10 25 76 59 18 9 9 2 6 4 9 2 5 3 4 3 6 2 2 4 9 3 8 37 41 33 21 28 38 30 40 33 38 40 39 35 29 23 19 16
40 32 26 17 11 8 13 19 24 35 26 21 7 7 76 74 18 10 8 7 4 4 4 7 7 8 6 5 4 3 3 2 4 6 4 5 7 8 13 19 42 31 32 32 36 35 37 38 42 36 28 20 15 13
34 26 21 15 7 9 16 25 40 30 17 11 18 56 18 8 9 9 3 3 3 10 9 11 8 9 10 6 7 2 5 6 4 5 4 6 7 18 22 16 25 36 31 38 35 22 34 36 33 26 19 13 8 9
26 20 17 11 2 14 23 34 36 24 27 43 16 6 5 3 7 9 11 6 5 15 20 16 5 8 8 6 10 6 8 5 2 3 6 8 18 30 22 8 20 31 33 36 28 33 36 34 27 18 11 5 6 12
30 19 10 3 9 18 31 34 38 46 11 6 6 5 2 2 5 7 7 8 9 22 47 35 13 7 6 7 4 9 4 5 6 3 10 6 14 32 14 8 21 32 32 32 31 34 31 24 16 8 1 7 11 16
34 9 9 14 11 24 37 33 42 22 5 6 4 4 1 4 7 7 12 15 19 54 46 25 12 9 4 7 4 7 9 3 9 8 6 11 30 32 11 14 22 28 31 34 33 28 21 13 6 5 11 15 20 25
26 21 16 17 14 34 30 25 19 5 5 7 8 7 6 7 4 6 27 36 48 43 19 11 6 8 2 8 7 9 10 10 7 7 18 35 27 9 10 20 22 25 26 24 20 16 9 6 11 17 21 25 29 34
31 39 19 22 22 25 16 16 8 7 7 7 5 10 2 8 8 9 30 35 40 10 3 8 9 11 4 6 3 7 8 7 7 19 18 12 11 17 22 22 22 21 17 13 8 9 12 17 23 30 35 33 38 41
32 12 26 33 35 37 24 6 8 8 9 7 2 4 6 9 21 23 17 37 13 6 6 6 15 7 9 9 6 7 16 16 17 4 13 21 23 21 19 14 9 5 4 8 13 20 28 35 39 38 40 43 47 46
26 7 8 16 19 11 5 6 4 8 5 7 10 9 10 16 19 23 39 20 17 21 21 7 9 4 6 11 11 13 14 12 10 19 19 19 16 13 10 5 5 12 20 27 33 37 40 41 43 45 45 46 49 51
26 12 9 11 10 6 6 7 6 7 5 5 8 8 11 12 21 26 26 18 15 6 5 4 7 8 11 10 7 3 4 12 20 21 18 12 5 3 10 17 24 29 34 37 40 42 43 44 43 43 45 49 57 63
12 17 7 10 1 5 7 5 7 8 10 9 15 8 10 18 12 9 10 13 3 2 3 10 11 12 12 11 8 10 10 24 17 7 8 15 18 24 28 31 35 39 42 44 45 46 47 47 49 52 58 63 67 71
12 7 3 6 5 5 8 7 10 11 6 11 8 7 10 6 7 7 6 4 8 11 13 11 11 15 13 16 19 17 17 20 22 27 31 33 35 36 37 38 40 40 40 44 46 48 50 50 55 60 65 67 66 66
13 6 4 3 4 4 6 6 4 5 6 3 7 7 5 3 5 11 5 9 12 16 20 19 18 19 19 20 24 24 27 30 30 29 31 32 32 30 27 29 32 37 41 43 46 48 51 55 57 58 57 55 56 56
8 5 5 2 3 4 6 4 5 7 7 5 5 4 1 2 5 2 5 9 17 17 21 17 17 20 20 21 23 20 22 27 25 21 17 16 17 23 30 35 39 42 45 47 49 51 51 50 50 49 49 49 44 41
5 4 4 3 5 7 6 6 7 7 4 2 6 3 3 1 3 1 6 11 18 19 16 20 26 28 27 23 20 20 24 18 13 12 15 20 26 33 37 41 42 44 47 48 47 45 44 44 43 40 36 33 30 26
6 8 5 10 2 6 8 5 5 8 6 4 1 1 2 5 4 9 6 8 10 5 14 25 28 29 26 21 18 16 18 17 18 20 23 27 31 37 42 46 47 46 44 41 40 38 36 32 29 26 23 21 18 13
9 11 10 10 11 16 9 7 7 7 7 9 7 4 5 4 9 9 7 10 11 10 13 17 21 22 19 14 12 16 15 14 17 22 26 30 35 40 42 41 41 39 35 34 31 28 24 21 18 16 13 11 9 8
7 26 14 24 10 8 10 4 8 12 9 16 22 6 16 16 10 5 8 12 9 5 5 13 13 13 11 8 7 5 9 15 21 25 29 32 34 35 36 33 30 27 25 22 19 17 14 11 8 8 8 8 10 12
12 24 28 6 6 5 15 13 13 18 23 30 12 8 9 13 9 12 14 13 11 4 3 8 12 11 7 4 10 17 21 25 28 32 32 30 30 30 25 23 21 18 14 13 12 8 6 6 8 10 13 17 16 16
17 40 13 9 14 13 18 27 10 20 36 23 14 10 10 10 12 18 14 12 13 13 12 13 13 12 14 20 25 28 29 29 29 26 24 24 21 18 15 13 11 11 10 9 11 12 14 17 20 22 21 19 18 17
32 26 10 11 10 11 20 26 20 20 25 26 29 20 14 9 13 17 18 18 18 19 19 22 27 30 30 31 31 31 27 23 19 19 17 12 9 7 7 9 10 12 14 17 20 24 27 29 27 23 20 18 17 18
16 20 14 6 3 6 12 17 13 15 15 15 10 16 11 12 11 20 26 24 28 30 32 32 28 28 27 24 20 15 14 11 9 6 2 3 7 11 14 17 20 23 27 31 33 33 31 27 24 20 17 17 18 20
10 10 8 10 6 5 11 11 10 3 7 6 8 9 15 12 13 17 20 25 25 26 22 17 16 15 13 11 8 6 2 0 4 7 10 14 18 22 25 27 30 34 36 37 35 31 26 22 17 16 17 19 21 23
Wind_Direction_500mb
322 316 314 312 309 306 306 289 273 269 267 265 257 258 256 239 258 211 196 202 203 187 168 221 200 155 132 134 132 145 113 165 99 162 149 221 126 219 97 184 178 158 147 192 141 188 264 146 114 165 191 132 165 214
317 305 298 303 301 298 293 287 267 263 261 258 246 252 263 242 254 220 192 186 197 170 181 221 243 196 162 167 144 168 104 166 170 102 94 109 93 96 161 209 180 233 183 185 185 215 213 182 156 160 165 164 183 217
338 319 295 298 297 296 290 283 266 256 249 251 241 247 258 238 249 188 184 176 177 168 140 145 157 213 219 220 168 150 193 170 177 134 150 160 132 131 154 237 178 261 186 210 59 261 205 179 170 178 170 165 173 191
344 345 331 319 301 300 288 277 261 252 241 238 233 244 253 235 233 205 196 184 181 144 141 170 183 159 177 196 198 184 170 163 154 140 100 137 151 168 204 182 169 200 144 197 261 289 107 207 214 198 177 157 150 127
338 337 331 317 306 296 282 265 246 247 229 220 220 236 213 223 203 200 201 183 183 171 145 124 163 180 175 161 159 169 170 166 155 110 87 205 167 106 2 59 252 189 186 181 220 209 186 202 197 184 178 165 147 132
332 334 329 322 308 287 263 246 232 228 214 203 209 213 186 197 206 174 140 179 181 171 140 109 124 42 217 207 181 166 174 165 155 163 187 193 193 176 147 234 252 231 227 226 201 172 201 166 169 176 175 163 147 129
332 331 333 330 323 275 225 224 217 210 202 197 198 220 214 229 215 186 172 172 174 159 114 78 48 61 96 131 170 164 181 180 193 186 169 162 195 178 134 216 247 228 211 204 183 164 134 164 177 176 172 156 143 125
323 325 337 343 2 87 176 194 196 192 191 186 194 208 185 175 187 189 166 159 168 153 131 103 292 77 116 126 112 149 154 167 96 105 124 125 126 110 256 240 263 203 184 178 184 192 199 180 167 164 159 149 141 119
329 336 338 339 5 100 160 179 182 179 179 178 189 185 190 172 124 127 132 146 154 157 127 106 128 204 113 74 87 71 107 73 50 74 70 171 145 224 226 215 205 197 197 196 190 195 172 171 165 162 158 153 143 121
343 343 340 333 316 226 201 183 175 172 173 182 169 160 134 123 125 115 110 109 180 154 98 106 122 90 122 109 26 75 25 113 102 277 334 71 252 255 249 243 234 220 209 204 176 169 175 177 174 166 159 152 135 112
337 340 339 325 288 242 207 186 170 168 168 159 117 77 132 131 117 97 128 128 139 81 101 106 121 138 152 111 174 52 171 339 76 275 105 284 279 261 328 285 237 223 216 215 217 220 205 186 169 165 157 136 107 76
332 336 340 334 279 211 199 176 169 177 162 188 152 137 122 130 87 90 63 61 111 195 144 123 126 123 128 132 97 345 114 38 208 314 71 274 258 326 328 300 220 209 206 204 206 202 176 170 165 156 140 115 80 36
320 314 330 341 233 172 173 173 177 176 153 125 136 114 146 43 103 129 168 274 177 166 165 147 125 123 119 113 76 79 75 207 325 67 230 239 301 331 324 295 199 189 190 190 181 170 163 165 160 150 130 92 11 352
318 295 305 241 189 166 173 172 166 141 108 121 137 109 114 206 235 177 176 170 139 152 141 125 116 126 123 64 147 87 248 73 47 352 242 257 320 348 333 202 194 179 175 174 166 163 162 161 157 148 202 305 323 329
337 298 185 175 177 167 155 165 156 158 67 91 98 165 140 147 54 116 115 121 124 145 133 119 92 106 53 86 54 98 33 294 201 232 237 293 324 328 296 193 181 176 167 166 164 161 159 163 181 254 288 303 319 320
68 89 127 144 166 156 142 155 161 141 44 38 64 87 123 75 338 107 122 124 142 147 121 95 104 64 1 128 77 210 124 220 252 226 303 315 326 324 171 167 166 168 164 161 161 167 182 240 278 289 297 307 309 310
75 64 117 148 168 178 187 164 117 74 69 38 17 83 101 77 133 119 144 146 160 146 125 108 85 196 102 51 340 190 203 225 252 323 327 5 64 112 135 149 157 160 164 173 199 254 277 285 291 298 302 307 306 305
36 57 137 171 191 183 165 88 74 62 48 50 120 47 76 112 124 127 138 155 148 100 109 166 129 81 150 150 263 245 244 271 277 271 119 111 109 112 119 126 133 162 229 271 286 288 294 294 295 303 304 305 299 299
357 16 108 133 129 85 101 83 99 115 115 109 87 86 97 89 104 134 151 137 105 103 116 112 81 152 219 211 205 237 257 236 197 162 144 128 124 133 144 171 261 291 296 296 293 292 292 295 297 296 295 296 300 304
341 331 20 79 112 89 81 70 80 87 97 109 104 79 74 86 124 124 141 126 118 107 64 87 194 202 177 169 173 213 245 196 179 168 172 173 174 295 312 308 301 296 291 289 292 295 296 295 293 292 295 299 301 301
324 352 24 17 214 80 91 104 76 91 118 103 113 73 74 106 95 87 108 145 168 217 236 221 214 172 179 202 216 230 240 191 171 202 266 291 295 299 298 298 299 301 305 307 305 304 301 298 297 299 300 301 302 301
294 310 301 326 343 94 92 73 105 112 104 123 112 94 97 85 114 146 158 214 235 225 200 200 209 201 223 248 249 235 213 217 255 276 285 290 292 300 305 307 305 304 301 300 298 297 296 296 297 297 298 298 297 297
282 245 261 205 158 51 101 124 145 107 106 172 112 74 32 74 148 163 230 235 246 234 220 230 235 238 253 257 249 242 246 258 262 268 277 286 293 298 301 298 297 298 297 297 297 296 296 297 297 298 299 300 303 304
245 231 217 156 80 153 123 62 80 99 112 61 74 79 323 95 143 116 240 249 234 236 244 250 246 249 242 236 238 240 246 252 261 269 272 278 291 295 297 298 297 298 300 302 304 303 303 304 305 306 308 310 312 311
219 246 204 346 119 98 69 22 357 55 94 351 89 17 296 93 79 229 231 260 243 252 255 229 223 222 229 232 234 233 236 239 239 256 263 284 295 301 303 303 304 306 307 306 306 307 308 309 310 313 316 317 321 326
190 195 156 183 162 122 178 118 181 165 128 108 135 115 114 97 90 244 233 253 250 252 236 216 213 221 232 241 242 223 213 221 241 262 280 290 297 301 303 304 308 310 310 309 311 314 315 316 318 320 326 332 339 345
187 223 171 157 136 133 85 87 125 110 141 164 186 132 92 130 238 251 242 253 250 229 215 211 222 228 234 234 219 211 230 259 279 284 291 295 299 302 305 309 312 314 314 315 316 318 321 324 326 330 339 348 357 19
180 175 163 170 144 156 131 114 149 181 189 158 136 172 172 191 225 198 186 159 146 129 216 220 222 220 209 184 184 230 283 292 293 294 295 298 302 306 311 314 317 320 321 322 323 321 323 333 352 17 27 54 66 73
160 168 148 80 113 178 202 180 203 203 176 169 158 197 227 209 219 199 183 175 174 203 183 173 172 164 172 254 293 297 296 294 293 293 296 302 309 314 315 320 328 334 342 347 354 9 44 74 90 92 91 90 93 89
164 169 128 139 151 207 209 197 208 197 191 193 192 186 197 220 227 225 237 246 257 251 232 222 223 237 266 283 288 288 290 291 294 296 303 313 320 324 331 344 2 18 33 53 67 76 87 96 101 104 103 100 86 68
157 170 118 159 207 204 203 203 207 200 203 211 209 213 209 218 247 257 254 256 256 255 253 258 266 271 278 286 294 293 293 292 298 310 318 324 337 2 35 56 69 78 87 94 98 100 104 106 105 100 91 77 58 37
153 173 140 151 237 166 177 186 194 203 206 207 218 219 227 226 235 260 252 247 248 247 248 258 269 279 282 285 285 288 289 302 307 305 316 50 88 99 104 106 106 109 109 109 110 109 107 102 94 83 65 44 31 27
111 122 107 111 109 151 166 160 171 150 202 210 224 228 219 219 231 237 240 239 241 242 249 262 270 271 268 269 282 299 327 104 146 133 123 120 120 121 119 118 120 117 116 115 110 104 97 86 72 56 43 38 34 30
Wind_Speed_850mb
89 79 70 63 57 51 47 39 34 33 35 30 28 28 23 30 31 43 64 48 31 12 5 7 4 2 6 12 7 16 10 4 4 5 6 6 6 9 6 7 10 11 11 7 6 5 16 18 12 12 7 9 6 4
102 92 75 68 56 49 44 40 34 32 35 28 27 27 26 31 35 46 53 44 32 11 6 12 9 5 4 15 14 34 1 9 16 5 0 5 5 4 8 6 2 4 11 8 14 10 6 41 3 16 9 8 8 4
110 83 66 64 46 45 42 36 32 33 33 29 28 28 25 28 25 76 61 53 36 15 6 5 4 6 8 12 22 13 11 13 11 6 7 4 5 6 6 8 4 7 10 4 4 5 8 32 13 10 7 6 7 3
95 72 55 38 40 39 40 32 31 29 32 27 23 25 28 27 21 54 66 58 34 18 7 6 11 8 6 8 16 16 12 18 19 11 6 4 5 5 5 4 6 8 13 9 7 3 5 21 22 18 13 11 8 4
79 76 62 50 47 42 35 30 30 28 27 23 23 18 19 16 30 56 63 51 33 11 9 8 11 8 7 7 9 14 23 24 14 6 4 4 5 5 3 4 5 15 12 9 10 17 12 11 41 27 19 13 9 8
76 77 68 58 50 43 35 29 30 26 25 23 21 20 16 19 25 42 14 44 40 19 9 5 5 2 6 12 7 6 13 13 9 11 7 7 7 9 6 5 14 31 24 33 11 18 17 22 38 24 19 15 13 11
80 68 67 59 59 39 32 28 29 25 23 22 21 15 27 26 35 32 17 22 54 25 5 5 4 5 9 10 6 7 10 4 7 8 6 10 6 11 3 6 13 21 37 20 21 28 22 35 20 25 19 20 18 14
78 58 55 42 32 11 18 23 26 26 22 23 21 16 18 51 51 39 18 41 58 19 6 6 3 3 4 5 5 8 9 7 3 4 3 5 6 4 6 19 11 15 27 28 32 23 12 30 31 30 26 23 18 15
45 39 39 24 14 6 11 18 25 22 24 28 23 25 27 31 17 32 49 60 33 5 12 6 7 4 4 5 5 4 3 3 2 3 1 2 2 10 16 19 28 35 31 31 32 21 23 34 35 31 27 24 19 16
42 37 31 17 8 4 10 19 19 25 28 23 25 15 10 25 76 59 18 9 9 2 6 4 9 2 5 3 4 3 6 2 2 4 9 3 8 37 41 33 21 28 38 30 40 33 38 40 39 35 29 23 19 16
40 32 26 17 11 8 13 19 24 35 26 21 7 7 76 74 18 10 8 7 4 4 4 7 7 8 6 5 4 3 3 2 4 6 4 5 7 8 13 19 42 31 32 32 36 35 37 38 42 36 28 20 15 13
34 26 21 15 7 9 16 25 40 30 17 11 18 56 18 8 9 9 3 3 3 10 9 11 8 9 10 6 7 2 5 6 4 5 4 6 7 18 22 16 25 36 31 38 35 22 34 36 33 26 19 13 8 9
26 20 17 11 2 14 23 34 36 24 27 43 16 6 5 3 7 9 11 6 5 15 20 16 5 8 8 6 10 6 8 5 2 3 6 8 18 30 22 8 20 31 33 36 28 33 36 34 27 18 11 5 6 12
30 19 10 3 9 18 31 34 38 46 11 6 6 5 2 2 5 7 7 8 9 22 47 35 13 7 6 7 4 9 4 5 6 3 10 6 14 32 14 8 21 32 32 32 31 34 31 24 16 8 1 7 11 16
34 9 9 14 11 24 37 33 42 22 5 6 4 4 1 4 7 7 12 15 19 54 46 25 12 9 4 7 4 7 9 3 9 8 6 11 30 32 11 14 22 28 31 34 33 28 21 13 6 5 11 15 20 25
26 21 16 17 14 34 30 25 19 5 5 7 8 7 6 7 4 6 27 36 48 43 19 11 6 8 2 8 7 9 10 10 7 7 18 35 27 9 10 20 22 25 26 24 20 16 9 6 11 17 21 25 29 34
31 39 19 22 22 25 16 16 8 7 7 7 5 10 2 8 8 9 30 35 40 10 3 8 9 11 4 6 3 7 8 7 7 19 18 12 11 17 22 22 22 21 17 13 8 9 12 17 23 30 35 33 38 41
32 12 26 33 35 37 24 6 8 8 9 7 2 4 6 9 21 23 17 37 13 6 6 6 15 7 9 9 6 7 16 16 17 4 13 21 23 21 19 14 9 5 4 8 13 20 28 35 39 38 40 43 47 46
26 7 8 16 19 11 5 6 4 8 5 7 10 9 10 16 19 23 39 20 17 21 21 7 9 4 6 11 11 13 14 12 10 19 19 19 16 13 10 5 5 12 20 27 33 37 40 41 43 45 45 46 49 51
26 12 9 11 10 6 6 7 6 7 5 5 8 8 11 12 21 26 26 18 15 6 5 4 7 8 11 10 7 3 4 12 20 21 18 12 5 3 10 17 24 29 34 37 40 42 43 44 43 43 45 49 57 63
12 17 7 10 1 5 7 5 7 8 10 9 15 8 10 18 12 9 10 13 3 2 3 10 11 12 12 11 8 10 10 24 17 7 8 15 18 24 28 31 35 39 42 44 45 46 47 47 49 52 58 63 67 71
12 7 3 6 5 5 8 7 10 11 6 11 8 7 10 6 7 7 6 4 8 11 13 11 11 15 13 16 19 17 17 20 22 27 31 33 35 36 37 38 40 40 40 44 46 48 50 50 55 60 65 67 66 66
13 6 4 3 4 4 6 6 4 5 6 3 7 7 5 3 5 11 5 9 12 16 20 19 18 19 19 20 24 24 27 30 30 29 31 32 32 30 27 29 32 37 41 43 46 48 51 55 57 58 57 55 56 56
8 5 5 2 3 4 6 4 5 7 7 5 5 4 1 2 5 2 5 9 17 17 21 17 17 20 20 21 23 20 22 27 25 21 17 16 17 23 30 35 39 42 45 47 49 51 51 50 50 49 49 49 44 41
5 4 4 3 5 7 6 6 7 7 4 2 6 3 3 1 3 1 6 11 18 19 16 20 26 28 27 23 20 20 24 18 13 12 15 20 26 33 37 41 42 44 47 48 47 45 44 44 43 40 36 33 30 26
6 8 5 10 2 6 8 5 5 8 6 4 1 1 2 5 4 9 6 8 10 5 14 25 28 29 26 21 18 16 18 17 18 20 23 27 31 37 42 46 47 46 44 41 40 38 36 32 29 26 23 21 18 13
9 11 10 10 11 16 9 7 7 7 7 9 7 4 5 4 9 9 7 10 11 10 13 17 21 22 19 14 12 16 15 14 17 22 26 30 35 40 42 41 41 39 35 34 31 28 24 21 18 16 13 11 9 8
7 26 14 24 10 8 10 4 8 12 9 16 22 6 16 16 10 5 8 12 9 5 5 13 13 13 11 8 7 5 9 15 21 25 29 32 34 35 36 33 30 27 25 22 19 17 14 11 8 8 8 8 10 12
12 24 28 6 6 5 15 13 13 18 23 30 12 8 9 13 9 12 14 13 11 4 3 8 12 11 7 4 10 17 21 25 28 32 32 30 30 30 25 23 21 18 14 13 12 8 6 6 8 10 13 17 16 16
17 40 13 9 14 13 18 27 10 20 36 23 14 10 10 10 12 18 14 12 13 13 12 13 13 12 14 20 25 28 29 29 29 26 24 24 21 18 15 13 11 11 10 9 11 12 14 17 20 22 21 19 18 17
32 26 10 11 10 11 20 26 20 20 25 26 29 20 14 9 13 17 18 18 18 19 19 22 27 30 30 31 31 31 27 23 19 19 17 12 9 7 7 9 10 12 14 17 20 24 27 29 27 23 20 18 17 18
16 20 14 6 3 6 12 17 13 15 15 15 10 16 11 12 11 20 26 24 28 30 32 32 28 28 27 24 20 15 14 11 9 6 2 3 7 11 14 17 20 23 27 31 33 33 31 27 24 20 17 17 18 20
10 10 8 10 6 5 11 11 10 3 7 6 8 9 15 12 13 17 20 25 25 26 22 17 16 15 13 11 8 6 2 0 4 7 10 14 18 22 25 27 30 34 36 37 35 31 26 22 17 16 17 19 21 23
Wind_Direction_850mb
322 316 314 312 309 306 306 289 273 269 267 265 257 258 256 239 258 211 196 202 203 187 168 221 200 155 132 134 132 145 113 165 99 162 149 221 126 219 97 184 178 158 147 192 141 188 264 146 114 165 191 132 165 214
317 305 298 303 301 298 293 287 267 263 261 258 246 252 263 242 254 220 192 186 197 170 181 221 243 196 162 167 144 168 104 166 170 102 94 109 93 96 161 209 180 233 183 185 185 215 213 182 156 160 165 164 183 217
338 319 295 298 297 296 290 283 266 256 249 251 241 247 258 238 249 188 184 176 177 168 140 145 157 213 219 220 168 150 193 170 177 134 150 160 132 131 154 237 178 261 186 210 59 261 205 179 170 178 170 165 173 191
344 345 331 319 301 300 288 277 261 252 241 238 233 244 253 235 233 205 196 184 181 144 141 170 183 159 177 196 198 184 170 163 154 140 100 137 151 168 204 182 169 200 144 197 261 289 107 207 214 198 177 157 150 127
338 337 331 317 306 296 282 265 246 247 229 220 220 236 213 223 203 200 201 183 183 171 145 124 163 180 175 161 159 169 170 166 155 110 87 205 167 106 2 59 252 189 186 181 220 209 186 202 197 184 178 165 147 132
332 334 329 322 308 287 263 246 232 228 214 203 209 213 186 197 206 174 140 179 181 171 140 109 124 42 217 207 181 166 174 165 155 163 187 193 193 176 147 234 252 231 227 226 201 172 201 166 169 176 175 163 147 129
332 331 333 330 323 275 225 224 217 210 202 197 198 220 214 229 215 186 172 172 174 159 114 78 48 61 96 131 170 164 181 180 193 186 169 162 195 178 134 216 247 228 211 204 183 164 134 164 177 176 172 156 143 125
323 325 337 343 2 87 176 194 196 192 191 186 194 208 185 175 187 189 166 159 168 153 131 103 292 77 116 126 112 149 154 167 96 105 124 125 126 110 256 240 263 203 184 178 184 192 199 180 167 164 159 149 141 119
329 336 338 339 5 100 160 179 182 179 179 178 189 185 190 172 124 127 132 146 154 157 127 106 128 204 113 74 87 71 107 73 50 74 70 171 145 224 226 215 205 197 197 196 190 195 172 171 165 162 158 153 143 121
343 343 340 333 316 226 201 183 175 172 173 182 169 160 134 123 125 115 110 109 180 154 98 106 122 90 122 109 26 75 25 113 102 277 334 71 252 255 249 243 234 220 209 204 176 169 175 177 174 166 159 152 135 112
337 340 339 325 288 242 207 186 170 168 168 159 117 77 132 131 117 97 128 128 139 81 101 106 121 138 152 111 174 52 171 339 76 275 105 284 279 261 328 285 237 223 216 215 217 220 205 186 169 165 157 136 107 76
332 336 340 334 279 211 199 176 169 177 162 188 152 137 122 130 87 90 63 61 111 195 144 123 126 123 128 132 97 345 114 38 208 314 71 274 258 326 328 300 220 209 206 204 206 202 176 170 165 156 140 115 80 36
320 314 330 341 233 172 173 173 177 176 153 125 136 114 146 43 103 129 168 274 177 166 165 147 125 123 119 113 76 79 75 207 325 67 230 239 301 331 324 295 199 189 190 190 181 170 163 165 160 150 130 92 11 352
318 295 305 241 189 166 173 172 166 141 108 121 137 109 114 206 235 177 176 170 139 152 141 125 116 126 123 64 147 87 248 73 47 352 242 257 320 348 333 202 194 179 175 174 166 163 162 161 157 148 202 305 323 329
337 298 185 175 177 167 155 165 156 158 67 91 98 165 140 147 54 116 115 121 124 145 133 119 92 106 53 86 54 98 33 294 201 232 237 293 324 328 296 193 181 176 167 166 164 161 159 163 181 254 288 303 319 320
68 89 127 144 166 156 142 155 161 141 44 38 64 87 123 75 338 107 122 124 142 147 121 95 104 64 1 128 77 210 124 220 252 226 303 315 326 324 171 167 166 168 164 161 161 167 182 240 278 289 297 307 309 310
75 64 117 148 168 178 187 164 117 74 69 38 17 83 101 77 133 119 144 146 160 146 125 108 85 196 102 51 340 190 203 225 252 323 327 5 64 112 135 149 157 160 164 173 199 254 277 285 291 298 302 307 306 305
36 57 137 171 191 183 165 88 74 62 48 50 120 47 76 112 124 127 138 155 148 100 109 166 129 81 150 150 263 245 244 271 277 271 119 111 109 112 119 126 133 162 229 271 286 288 294 294 295 303 304 305 299 299
357 16 108 133 129 85 101 83 99 115 115 109 87 86 97 89 104 134 151 137 105 103 116 112 81 152 219 211 205 237 257 236 197 162 144 128 124 133 144 171 261 291 296 296 293 292 292 295 297 296 295 296 300 304
341 331 20 79 112 89 81 70 80 87 97 109 104 79 74 86 124 124 141 126 118 107 64 87 194 202 177 169 173 213 245 196 179 168 172 173 174 295 312 308 301 296 291 289 292 295 296 295 293 292 295 299 301 301
324 352 24 17 214 80 91 104 76 91 118 103 113 73 74 106 95 87 108 145 168 217 236 221 214 172 179 202 216 230 240 191 171 202 266 291 295 299 298 298 299 301 305 307 305 304 301 298 297 299 300 301 302 301
294 310 301 326 343 94 92 73 105 112 104 123 112 94 97 85 114 146 158 214 235 225 200 200 209 201 223 248 249 235 213 217 255 276 285 290 292 300 305 307 305 304 301 300 298 297 296 296 297 297 298 298 297 297
282 245 261 205 158 51 101 124 145 107 106 172 112 74 32 74 148 163 230 235 246 234 220 230 235 238 253 257 249 242 246 258 262 268 277 286 293 298 301 298 297 298 297 297 297 296 296 297 297 298 299 300 303 304
245 231 217 156 80 153 123 62 80 99 112 61 74 79 323 95 143 116 240 249 234 236 244 250 246 249 242 236 238 240 246 252 261 269 272 278 291 295 297 298 297 298 300 302 304 303 303 304 305 306 308 310 312 311
219 246 204 346 119 98 69 22 357 55 94 351 89 17 296 93 79 229 231 260 243 252 255 229 223 222 229 232 234 233 236 239 239 256 263 284 295 301 303 303 304 306 307 306 306 307 308 309 310 313 316 317 321 326
190 195 156 183 162 122 178 118 181 165 128 108 135 115 114 97 90 244 233 253 250 252 236 216 213 221 232 241 242 223 213 221 241 262 280 290 297 301 303 304 308 310 310 309 311 314 315 316 318 320 326 332 339 345
187 223 171 157 136 133 85 87 125 110 141 164 186 132 92 130 238 251 242 253 250 229 215 211 222 228 234 234 219 211 230 259 279 284 291 295 299 302 305 309 312 314 314 315 316 318 321 324 326 330 339 348 357 19
180 175 163 170 144 156 131 114 149 181 189 158 136 172 172 191 225 198 186 159 146 129 216 220 222 220 209 184 184 230 283 292 293 294 295 298 302 306 311 314 317 320 321 322 323 321 323 333 352 17 27 54 66 73
160 168 148 80 113 178 202 180 203 203 176 169 158 197 227 209 219 199 183 175 174 203 183 173 172 164 172 254 293 297 296 294 293 293 296 302 309 314 315 320 328 334 342 347 354 9 44 74 90 92 91 90 93 89
164 169 128 139 151 207 209 197 208 197 191 193 192 186 197 220 227 225 237 246 257 251 232 222 223 237 266 283 288 288 290 291 294 296 303 313 320 324 331 344 2 18 33 53 67 76 87 96 101 104 103 100 86 68
157 170 118 159 207 204 203 203 207 200 203 211 209 213 209 218 247 257 254 256 256 255 253 258 266 271 278 286 294 293 293 292 298 310 318 324 337 2 35 56 69 78 87 94 98 100 104 106 105 100 91 77 58 37
153 173 140 151 237 166 177 186 194 203 206 207 218 219 227 226 235 260 252 247 248 247 248 258 269 279 282 285 285 288 289 302 307 305 316 50 88 99 104 106 106 109 109 109 110 109 107 102 94 83 65 44 31 27
111 122 107 111 109 151 166 160 171 150 202 210 224 228 219 219 231 237 240 239 241 242 249 262 270 271 268 269 282 299 327 104 146 133 123 120 120 121 119 118 120 117 116 115 110 104 97 86 72 56 43 38 34 30